Back to catalog

SENTINEL 1C

AliveScienceSSO
NORAD 62261·PAYLOAD·🇪🇺 EU

Launched Dec 5, 2024 from Guiana Space Centre

Loading…

Next Passes (next 24 hours)

TLE

FreshSource: Space-Track

Epoch: Sep 14, 2026, 14:50 UTC

1 62261U 24235A   26257.61834089 -.00000158  00000-0 -23720-4 0  9998
2 62261  98.1822 263.6593 0001285  89.9964 270.1383 14.59198020 94459

Track SENTINEL 1C in real time with AllMySat

Download on the App Store